Flag for Germany Weather past 2 weeks in Backnang, Baden-Württemberg, Germany

Now
92 °F

Sunny.


Feels Like: 91 °F
Forecast: 68 / 91 °F
Wind: 2 mph from Southeast

Location: Oehringen

Current Time: Jul 2, 2015 at 3:06:42 PM

Latest Report: Jul 2, 2015 at 2:00 PM


Visibility: 25 mi

Pressure: 30.09 "Hg

Humidity: 32%

Dew point: 58 °F

Location of BacknangLocation

Historic Weather in Backnang — Graph

°F

Backnang temperature yesterday

Maximum temperature yesterday: 91 °F (at 5:00 PM)
Minimum temperature yesterday: 62 °F (at 6:00 AM)
Average temperature yesterday: 77 °F

Past Weeks' High & Low Weather Summary

 TemperatureHumidityPressure
High92 °F (Jul 2, 2:00 PM)98% (Jun 18, 5:00 PM)30.24 "Hg (Jun 18, 5:00 PM)
Low49 °F (Jun 23, 7:00 AM)29% (Jun 30, 6:00 PM)29.75 "Hg (Jun 23, 2:00 AM)
Average63 °F70%30.09 "Hg
* Reported Jun 17 2:00 PM — Jul 2 2:00 PM, Backnang, Weather by CustomWeather, © 2015

Note: Actual official high and low records may vary slightly from our data, if they occured in-between our weather recording intervals... More about our weather records

Advertising

Backnang weather history for previous 24 hours

 ConditionsComfort  
Time TempWeatherWind HumidityBarometerVisibility
2:00 PM
Thu, Jul 2
92 °FSunny.2 mph32%30.09 "Hg25 mi
1:00 PM90 °FSunny.3 mph33%30.10 "Hg19 mi
12:00 PM89 °FSunny.3 mph38%30.10 "Hg22 mi
11:00 AM87 °FSunny.5 mph40%30.11 "Hg19 mi
10:00 AM83 °FSunny.5 mph44%30.11 "Hg19 mi
9:00 AM80 °FSunny.3 mph49%30.12 "Hg19 mi
8:00 AM75 °FSunny.2 mph60%30.12 "Hg14 mi
7:00 AM70 °FSunny.2 mph69%30.13 "Hg11 mi
6:00 AM68 °FSunny.2 mph71%30.12 "Hg16 mi
5:00 AM69 °FClear.2 mph71%30.11 "Hg14 mi
4:00 AM70 °FClear.3 mph67%30.11 "Hg16 mi
3:00 AM72 °FClear.2 mph64%30.10 "Hg17 mi
2:00 AM74 °FClear.2 mph59%30.10 "Hg18 mi
1:00 AM74 °FClear.2 mph60%30.09 "Hg19 mi
12:00 AM74 °FClear.3 mph65%30.08 "Hg16 mi
11:00 PM
Wed, Jul 1
76 °FClear.2 mph63%30.08 "Hg19 mi
10:00 PM79 °FClear.2 mph56%30.06 "Hg19 mi
9:00 PM85 °FSunny.2 mph42%30.03 "Hg22 mi
8:00 PM88 °FSunny.3 mph35%30.02 "Hg22 mi
7:00 PM90 °FSunny.3 mph34%30.01 "Hg25 mi
6:00 PM90 °FSunny.3 mph32%30.02 "Hg22 mi
5:00 PM91 °FSunny.3 mph33%30.03 "Hg28 mi
4:00 PM90 °FSunny.3 mph33%30.03 "Hg31 mi
3:00 PM89 °FSunny.3 mph33%30.04 "Hg22 mi
Weather by CustomWeather, © 2015

See weather overviewHow to use our weather pages